Location: Unspecified
(50.0830°N, 0.0000°E)
Time: 03:52:07
(UTC+00:00)

N. Korean satellite - Pass Details

Date: 21 November 2019
Orbit: 455 x 506 km, 97.2° (Epoch: 10 December)

Event Time Altitude Azimuth Distance (km) Brightness Sun altitude
Rises 05:15:21 0° 22° (NNE) 2,619 10.5 -19.9°
Reaches altitude 10° 05:17:43 10° 36° (NE) 1,724 9.7 -19.5°
Maximum altitude 05:20:53 26° 94° (E) 1,014 9.0 -19.0°
Drops below altitude 10° 05:24:00 10° 153° (SSE) 1,692 9.8 -18.5°
Sets 05:26:17 0° 166° (SSE) 2,560 10.5 -18.2°
